Wetterdaten: Donnerstag, 25.04.2013
Datum Zeit Temperatur Luftfeuchte Luftdruck Regen Wind Richtung Richtung Taupunkt Windchill Windben
25.04.2013 00:00 8,3 C 81 % 1027,9 hPa 0,0 l/m 0,0 km/h (0 Bft) NO 45 5,2 C 8,1 C 0,0 km/h (0 Bft)
25.04.2013 00:05 8,2 C 81 % 1027,8 hPa 0,0 l/m 0,0 km/h (0 Bft) N-NW 337 5,1 C 8,0 C 0,0 km/h (0 Bft)
25.04.2013 00:10 8,2 C 81 % 1027,8 hPa 0,0 l/m 0,0 km/h (0 Bft) NO 45 5,1 C 8,0 C 0,0 km/h (0 Bft)
25.04.2013 00:15 8,3 C 81 % 1027,8 hPa 0,0 l/m 0,0 km/h (0 Bft) N-NO 22 5,2 C 7,9 C 0,0 km/h (0 Bft)
25.04.2013 00:20 8,2 C 81 % 1027,8 hPa 0,0 l/m 0,0 km/h (0 Bft) NO 45 5,1 C 7,9 C 0,0 km/h (0 Bft)
25.04.2013 00:25 8,1 C 81 % 1027,9 hPa 0,0 l/m 0,0 km/h (0 Bft) NO 45 5,0 C 7,9 C 0,0 km/h (0 Bft)
25.04.2013 00:30 8,3 C 82 % 1027,9 hPa 0,0 l/m 0,0 km/h (0 Bft) NW 315 5,4 C 7,9 C 0,0 km/h (0 Bft)
25.04.2013 00:35 8,2 C 82 % 1027,9 hPa 0,0 l/m 0,0 km/h (0 Bft) N-NO 22 5,3 C 7,9 C 0,0 km/h (0 Bft)
25.04.2013 00:40 7,7 C 81 % 1027,9 hPa 0,0 l/m 0,0 km/h (0 Bft) NO 45 4,7 C 7,8 C 0,0 km/h (0 Bft)
25.04.2013 00:45 7,7 C 81 % 1027,9 hPa 0,0 l/m 0,0 km/h (0 Bft) NO 45 4,7 C 7,6 C 0,0 km/h (0 Bft)
25.04.2013 00:50 7,7 C 81 % 1027,9 hPa 0,0 l/m 0,0 km/h (0 Bft) N-NO 22 4,7 C 7,7 C 0,0 km/h (0 Bft)
25.04.2013 00:55 7,5 C 81 % 1027,9 hPa 0,0 l/m 0,0 km/h (0 Bft) N 360 4,5 C 7,7 C 0,0 km/h (0 Bft)
25.04.2013 01:00 7,6 C 81 % 1027,9 hPa 0,0 l/m 0,0 km/h (0 Bft) W-NW 292 4,6 C 7,7 C 0,0 km/h (0 Bft)
25.04.2013 01:05 7,6 C 81 % 1027,7 hPa 0,0 l/m 0,0 km/h (0 Bft) W-NW 292 4,6 C 7,7 C 0,0 km/h (0 Bft)
25.04.2013 01:10 7,4 C 82 % 1027,7 hPa 0,0 l/m 0,0 km/h (0 Bft) NO 45 4,5 C 7,7 C 0,0 km/h (0 Bft)
25.04.2013 01:15 7,5 C 82 % 1027,7 hPa 0,0 l/m 0,0 km/h (0 Bft) NO 45 4,6 C 7,7 C 0,0 km/h (0 Bft)
25.04.2013 01:20 7,6 C 82 % 1027,7 hPa 0,0 l/m 0,0 km/h (0 Bft) N 360 4,7 C 7,7 C 0,0 km/h (0 Bft)
25.04.2013 01:25 7,6 C 82 % 1027,5 hPa 0,0 l/m 0,0 km/h (0 Bft) W 270 4,7 C 7,6 C 0,0 km/h (0 Bft)
25.04.2013 01:30 7,8 C 83 % 1027,5 hPa 0,0 l/m 0,0 km/h (0 Bft) W-NW 292 5,1 C 7,7 C 0,0 km/h (0 Bft)
25.04.2013 01:35 7,9 C 83 % 1027,5 hPa 0,0 l/m 0,0 km/h (0 Bft) W-NW 292 5,2 C 7,7 C 0,0 km/h (0 Bft)
25.04.2013 01:40 7,8 C 83 % 1027,5 hPa 0,0 l/m 0,0 km/h (0 Bft) NO 45 5,1 C 7,8 C 0,0 km/h (0 Bft)
25.04.2013 01:45 7,8 C 83 % 1027,6 hPa 0,0 l/m 0,0 km/h (0 Bft) NO 45 5,1 C 7,7 C 0,0 km/h (0 Bft)
25.04.2013 01:50 7,7 C 83 % 1027,6 hPa 0,0 l/m 0,0 km/h (0 Bft) NO 45 5,0 C 7,6 C 0,0 km/h (0 Bft)
25.04.2013 01:55 7,5 C 83 % 1027,6 hPa 0,0 l/m 0,0 km/h (0 Bft) W 270 4,8 C 7,6 C 0,0 km/h (0 Bft)
25.04.2013 02:00 7,7 C 83 % 1027,6 hPa 0,0 l/m 0,0 km/h (0 Bft) W-SW 247 5,0 C 7,6 C 0,0 km/h (0 Bft)
25.04.2013 02:05 7,6 C 83 % 1027,5 hPa 0,0 l/m 0,0 km/h (0 Bft) N-NO 22 4,9 C 7,6 C 0,0 km/h (0 Bft)
25.04.2013 02:10 7,6 C 83 % 1027,5 hPa 0,0 l/m 0,0 km/h (0 Bft) NO 45 4,9 C 7,6 C 0,0 km/h (0 Bft)
25.04.2013 02:15 7,5 C 83 % 1027,5 hPa 0,0 l/m 0,0 km/h (0 Bft) N-NO 22 4,8 C 7,6 C 0,0 km/h (0 Bft)
25.04.2013 02:20 7,4 C 83 % 1027,5 hPa 0,0 l/m 0,0 km/h (0 Bft) N-NO 22 4,7 C 7,6 C 0,0 km/h (0 Bft)
25.04.2013 02:25 7,3 C 83 % 1027,3 hPa 0,0 l/m 0,0 km/h (0 Bft) N 360 4,6 C 7,6 C 0,0 km/h (0 Bft)
25.04.2013 02:30 7,4 C 83 % 1027,3 hPa 0,0 l/m 0,0 km/h (0 Bft) N-NW 337 4,7 C 7,6 C 0,0 km/h (0 Bft)
25.04.2013 02:35 7,5 C 83 % 1027,3 hPa 0,0 l/m 0,0 km/h (0 Bft) N-NO 22 4,8 C 7,6 C 0,0 km/h (0 Bft)
25.04.2013 02:40 7,2 C 83 % 1027,3 hPa 0,0 l/m 0,0 km/h (0 Bft) W-SW 247 4,5 C 7,6 C 0,0 km/h (0 Bft)
25.04.2013 02:45 7,5 C 83 % 1027,3 hPa 0,0 l/m 0,0 km/h (0 Bft) NO 45 4,8 C 7,6 C 0,0 km/h (0 Bft)
25.04.2013 02:50 7,5 C 83 % 1027,3 hPa 0,0 l/m 0,0 km/h (0 Bft) W-SW 247 4,8 C 7,4 C 0,0 km/h (0 Bft)
25.04.2013 02:55 7,3 C 83 % 1027,3 hPa 0,0 l/m 0,0 km/h (0 Bft) W-SW 247 4,6 C 7,3 C 0,0 km/h (0 Bft)
25.04.2013 03:00 6,9 C 83 % 1027,3 hPa 0,0 l/m 0,0 km/h (0 Bft) W-NW 292 4,2 C 6,9 C 0,0 km/h (0 Bft)
25.04.2013 03:05 6,7 C 83 % 1027,3 hPa 0,0 l/m 0,0 km/h (0 Bft) W-SW 247 4,0 C 6,7 C 0,0 km/h (0 Bft)
25.04.2013 03:10 6,4 C 83 % 1027,3 hPa 0,0 l/m 0,0 km/h (0 Bft) N-NO 22 3,7 C 6,4 C 0,0 km/h (0 Bft)
25.04.2013 03:15 6,4 C 84 % 1027,3 hPa 0,0 l/m 0,0 km/h (0 Bft) N-NO 22 3,9 C 6,2 C 0,0 km/h (0 Bft)
25.04.2013 03:20 6,2 C 84 % 1027,3 hPa 0,0 l/m 0,0 km/h (0 Bft) N-NW 337 3,7 C 5,9 C 0,0 km/h (0 Bft)
25.04.2013 03:25 6,1 C 85 % 1027,2 hPa 0,0 l/m 0,0 km/h (0 Bft) W-NW 292 3,8 C 5,8 C 0,0 km/h (0 Bft)
25.04.2013 03:30 6,0 C 85 % 1027,2 hPa 0,0 l/m 0,0 km/h (0 Bft) NO 45 3,7 C 5,6 C 0,0 km/h (0 Bft)
25.04.2013 03:35 5,9 C 86 % 1027,2 hPa 0,0 l/m 0,0 km/h (0 Bft) N 360 3,7 C 5,5 C 0,0 km/h (0 Bft)
25.04.2013 03:40 6,0 C 85 % 1027,2 hPa 0,0 l/m 0,0 km/h (0 Bft) N 360 3,7 C 5,8 C 0,0 km/h (0 Bft)
25.04.2013 03:45 6,4 C 86 % 1027,1 hPa 0,0 l/m 0,0 km/h (0 Bft) W 270 4,2 C 6,3 C 0,0 km/h (0 Bft)
25.04.2013 03:50 6,6 C 86 % 1027,1 hPa 0,0 l/m 0,0 km/h (0 Bft) S-SO 157 4,4 C 6,7 C 0,0 km/h (0 Bft)
25.04.2013 03:55 7,0 C 86 % 1027,1 hPa 0,0 l/m 0,0 km/h (0 Bft) S-SW 202 4,8 C 7,0 C 0,0 km/h (0 Bft)
25.04.2013 04:00 6,9 C 86 % 1027,1 hPa 0,0 l/m 0,0 km/h (0 Bft) W-SW 247 4,7 C 7,2 C 0,0 km/h (0 Bft)
25.04.2013 04:05 7,0 C 86 % 1027,1 hPa 0,0 l/m 0,0 km/h (0 Bft) S-SW 202 4,8 C 7,3 C 0,0 km/h (0 Bft)
25.04.2013 04:10 6,7 C 86 % 1027,1 hPa 0,0 l/m 0,0 km/h (0 Bft) W 270 4,5 C 7,3 C 0,0 km/h (0 Bft)
25.04.2013 04:15 6,7 C 85 % 1027,1 hPa 0,0 l/m 0,0 km/h (0 Bft) W-SW 247 4,4 C 7,1 C 0,0 km/h (0 Bft)
25.04.2013 04:20 6,4 C 85 % 1027,1 hPa 0,0 l/m 0,0 km/h (0 Bft) SW 225 4,1 C 7,0 C 0,0 km/h (0 Bft)
25.04.2013 04:25 6,4 C 85 % 1027,1 hPa 0,0 l/m 0,0 km/h (0 Bft) W-SW 247 4,1 C 6,8 C 0,0 km/h (0 Bft)
25.04.2013 04:30 6,5 C 85 % 1027,1 hPa 0,0 l/m 0,0 km/h (0 Bft) NW 315 4,2 C 6,6 C 0,0 km/h (0 Bft)
25.04.2013 04:35 6,5 C 85 % 1027,1 hPa 0,0 l/m 0,0 km/h (0 Bft) SW 225 4,2 C 6,4 C 0,0 km/h (0 Bft)
25.04.2013 04:40 6,5 C 85 % 1027,1 hPa 0,0 l/m 0,0 km/h (0 Bft) W-SW 247 4,2 C 6,4 C 0,0 km/h (0 Bft)
25.04.2013 04:45 6,6 C 86 % 1027,0 hPa 0,0 l/m 0,0 km/h (0 Bft) W-SW 247 4,4 C 6,4 C 0,0 km/h (0 Bft)
25.04.2013 04:50 6,8 C 86 % 1027,0 hPa 0,0 l/m 0,0 km/h (0 Bft) W-SW 247 4,6 C 6,7 C 0,0 km/h (0 Bft)
25.04.2013 04:55 6,6 C 86 % 1027,0 hPa 0,0 l/m 0,0 km/h (0 Bft) W-SW 247 4,4 C 6,7 C 0,0 km/h (0 Bft)
25.04.2013 05:00 6,6 C 86 % 1027,0 hPa 0,0 l/m 0,0 km/h (0 Bft) S-SW 202 4,4 C 6,8 C 0,0 km/h (0 Bft)
25.04.2013 05:05 6,7 C 86 % 1026,9 hPa 0,0 l/m 0,0 km/h (0 Bft) W 270 4,5 C 6,8 C 0,0 km/h (0 Bft)
25.04.2013 05:10 6,2 C 85 % 1026,9 hPa 0,0 l/m 0,0 km/h (0 Bft) W-SW 247 3,9 C 6,5 C 0,0 km/h (0 Bft)
25.04.2013 05:15 5,9 C 86 % 1026,9 hPa 0,0 l/m 0,0 km/h (0 Bft) W-SW 247 3,7 C 6,2 C 0,0 km/h (0 Bft)
25.04.2013 05:20 5,5 C 85 % 1026,9 hPa 0,0 l/m 0,0 km/h (0 Bft) N-NW 337 3,2 C 5,8 C 0,0 km/h (0 Bft)
25.04.2013 05:25 5,2 C 85 % 1026,9 hPa 0,0 l/m 0,0 km/h (0 Bft) NO 45 2,9 C 5,5 C 0,0 km/h (0 Bft)
25.04.2013 05:30 5,3 C 86 % 1026,9 hPa 0,0 l/m 0,0 km/h (0 Bft) N 360 3,2 C 5,4 C 0,0 km/h (0 Bft)
25.04.2013 05:35 5,6 C 86 % 1026,9 hPa 0,0 l/m 0,0 km/h (0 Bft) W-SW 247 3,4 C 5,4 C 0,0 km/h (0 Bft)
25.04.2013 05:40 5,6 C 86 % 1026,9 hPa 0,0 l/m 0,0 km/h (0 Bft) W 270 3,4 C 5,6 C 0,0 km/h (0 Bft)
25.04.2013 05:45 5,6 C 87 % 1026,8 hPa 0,0 l/m 0,0 km/h (0 Bft) N 360 3,6 C 5,7 C 0,0 km/h (0 Bft)
25.04.2013 05:50 5,9 C 87 % 1026,8 hPa 0,0 l/m 0,0 km/h (0 Bft) W-SW 247 3,9 C 5,7 C 0,0 km/h (0 Bft)
25.04.2013 05:55 5,8 C 87 % 1026,8 hPa 0,0 l/m 0,0 km/h (0 Bft) N-NO 22 3,8 C 5,6 C 0,0 km/h (0 Bft)
25.04.2013 06:00 5,5 C 87 % 1026,8 hPa 0,0 l/m 0,0 km/h (0 Bft) SW 225 3,5 C 5,4 C 0,0 km/h (0 Bft)
25.04.2013 06:05 5,4 C 87 % 1026,9 hPa 0,0 l/m 0,0 km/h (0 Bft) W-NW 292 3,4 C 5,4 C 0,0 km/h (0 Bft)
25.04.2013 06:10 5,7 C 87 % 1026,9 hPa 0,0 l/m 0,0 km/h (0 Bft) N-NO 22 3,7 C 5,5 C 0,0 km/h (0 Bft)
25.04.2013 06:15 5,5 C 87 % 1026,9 hPa 0,0 l/m 0,0 km/h (0 Bft) W-SW 247 3,5 C 5,6 C 0,0 km/h (0 Bft)
25.04.2013 06:20 5,8 C 88 % 1026,9 hPa 0,0 l/m 0,0 km/h (0 Bft) N-NO 22 4,0 C 5,6 C 0,0 km/h (0 Bft)
25.04.2013 06:25 5,8 C 88 % 1026,9 hPa 0,0 l/m 0,0 km/h (0 Bft) W-NW 292 4,0 C 5,6 C 0,0 km/h (0 Bft)
25.04.2013 06:30 6,2 C 87 % 1026,9 hPa 0,0 l/m 0,5 km/h (0 Bft) N 360 4,2 C 6,2 C 0,0 km/h (0 Bft)
25.04.2013 06:35 6,3 C 87 % 1026,9 hPa 0,0 l/m 1,1 km/h (1 Bft) S 180 4,3 C 6,7 C 2,6 km/h (1 Bft)
25.04.2013 06:40 6,6 C 87 % 1026,9 hPa 0,0 l/m 1,3 km/h (1 Bft) W-NW 292 4,6 C 7,2 C 0,0 km/h (0 Bft)
25.04.2013 06:45 6,9 C 87 % 1027,7 hPa 0,0 l/m 0,8 km/h (0 Bft) N-NO 22 4,9 C 8,0 C 0,0 km/h (0 Bft)
25.04.2013 06:50 7,2 C 86 % 1027,7 hPa 0,0 l/m 0,2 km/h (0 Bft) W-SW 247 5,0 C 9,1 C 0,0 km/h (0 Bft)
25.04.2013 06:55 7,1 C 85 % 1027,7 hPa 0,0 l/m 0,2 km/h (0 Bft) O-NO 67 4,8 C 9,5 C 0,0 km/h (0 Bft)
25.04.2013 07:00 6,8 C 85 % 1027,7 hPa 0,0 l/m 0,0 km/h (0 Bft) SW 225 4,5 C 10,2 C 0,0 km/h (0 Bft)
25.04.2013 07:05 6,7 C 84 % 1027,6 hPa 0,0 l/m 0,2 km/h (0 Bft) W-SW 247 4,2 C 10,4 C 2,1 km/h (1 Bft)
25.04.2013 07:10 6,9 C 84 % 1027,6 hPa 0,0 l/m 0,2 km/h (0 Bft) W-NW 292 4,4 C 10,7 C 0,0 km/h (0 Bft)
25.04.2013 07:15 6,9 C 84 % 1027,6 hPa 0,0 l/m 0,2 km/h (0 Bft) O 90 4,4 C 11,2 C 0,0 km/h (0 Bft)
25.04.2013 07:20 7,1 C 84 % 1027,6 hPa 0,0 l/m 0,0 km/h (0 Bft) O 90 4,6 C 12,1 C 0,0 km/h (0 Bft)
25.04.2013 07:25 7,4 C 84 % 1027,7 hPa 0,0 l/m 0,0 km/h (0 Bft) NO 45 4,9 C 12,8 C 0,0 km/h (0 Bft)
25.04.2013 07:30 9,6 C 82 % 1027,7 hPa 0,0 l/m 0,2 km/h (0 Bft) W-NW 292 6,7 C 13,6 C 0,0 km/h (0 Bft)
25.04.2013 07:35 10,4 C 79 % 1027,7 hPa 0,0 l/m 0,5 km/h (0 Bft) W 270 6,9 C 14,0 C 2,3 km/h (1 Bft)
25.04.2013 07:40 13,8 C 73 % 1027,7 hPa 0,0 l/m 0,5 km/h (0 Bft) S-SW 202 9,0 C 14,9 C 0,0 km/h (0 Bft)
25.04.2013 07:45 14,2 C 71 % 1027,6 hPa 0,0 l/m 0,5 km/h (0 Bft) W-NW 292 9,0 C 15,1 C 0,0 km/h (0 Bft)
25.04.2013 07:50 15,2 C 67 % 1027,6 hPa 0,0 l/m 0,2 km/h (0 Bft) N-NW 337 9,1 C 15,9 C 0,0 km/h (0 Bft)
25.04.2013 07:55 16,4 C 65 % 1027,6 hPa 0,0 l/m 0,0 km/h (0 Bft) NW 315 9,8 C 16,5 C 1,6 km/h (1 Bft)
25.04.2013 08:00 17,1 C 60 % 1027,6 hPa 0,0 l/m 0,3 km/h (0 Bft) N-NO 22 9,3 C 17,0 C 0,0 km/h (0 Bft)
25.04.2013 08:05 17,6 C 59 % 1027,9 hPa 0,0 l/m 0,3 km/h (0 Bft) NO 45 9,5 C 17,6 C 0,0 km/h (0 Bft)
25.04.2013 08:10 17,7 C 54 % 1027,9 hPa 0,0 l/m 0,2 km/h (0 Bft) O-NO 67 8,3 C 18,4 C 0,0 km/h (0 Bft)
25.04.2013 08:15 18,4 C 55 % 1027,9 hPa 0,0 l/m 0,0 km/h (0 Bft) NO 45 9,2 C 19,0 C 0,0 km/h (0 Bft)
25.04.2013 08:20 18,9 C 51 % 1027,9 hPa 0,0 l/m 0,0 km/h (0 Bft) S-SW 202 8,5 C 19,5 C 0,0 km/h (0 Bft)
25.04.2013 08:25 19,1 C 51 % 1027,9 hPa 0,0 l/m 0,0 km/h (0 Bft) O 90 8,7 C 19,8 C 0,0 km/h (0 Bft)
25.04.2013 08:30 19,7 C 50 % 1027,9 hPa 0,0 l/m 0,0 km/h (0 Bft) W-SW 247 9,0 C 20,4 C 0,0 km/h (0 Bft)
25.04.2013 08:35 19,8 C 49 % 1027,9 hPa 0,0 l/m 0,3 km/h (0 Bft) O-NO 67 8,8 C 20,3 C 0,0 km/h (0 Bft)
25.04.2013 08:40 20,6 C 49 % 1027,9 hPa 0,0 l/m 0,3 km/h (0 Bft) W-SW 247 9,5 C 21,1 C 0,0 km/h (0 Bft)
25.04.2013 08:45 21,3 C 49 % 1028,2 hPa 0,0 l/m 0,0 km/h (0 Bft) NW 315 10,1 C 21,5 C 0,0 km/h (0 Bft)
25.04.2013 08:50 21,1 C 48 % 1028,2 hPa 0,0 l/m 0,0 km/h (0 Bft) W-SW 247 9,7 C 22,2 C 0,0 km/h (0 Bft)
25.04.2013 08:55 21,4 C 47 % 1028,2 hPa 0,0 l/m 0,2 km/h (0 Bft) O 90 9,6 C 22,4 C 2,6 km/h (1 Bft)
25.04.2013 09:00 21,4 C 46 % 1028,2 hPa 0,0 l/m 0,3 km/h (0 Bft) O-SO 112 9,3 C 22,6 C 0,0 km/h (0 Bft)
25.04.2013 09:05 21,3 C 44 % 1028,3 hPa 0,0 l/m 0,3 km/h (0 Bft) N-NO 22 8,5 C 23,3 C 0,0 km/h (0 Bft)
25.04.2013 09:10 22,1 C 47 % 1028,3 hPa 0,0 l/m 0,2 km/h (0 Bft) W-SW 247 10,3 C 23,5 C 0,0 km/h (0 Bft)
25.04.2013 09:15 21,5 C 44 % 1028,3 hPa 0,0 l/m 0,3 km/h (0 Bft) W-NW 292 8,7 C 23,6 C 1,9 km/h (1 Bft)
25.04.2013 09:20 22,6 C 45 % 1028,3 hPa 0,0 l/m 1,0 km/h (0 Bft) W-SW 247 10,1 C 23,5 C 2,1 km/h (1 Bft)
25.04.2013 09:25 22,8 C 43 % 1028,6 hPa 0,0 l/m 1,0 km/h (0 Bft) S-SW 202 9,6 C 23,6 C 2,1 km/h (1 Bft)
25.04.2013 09:30 22,5 C 41 % 1028,6 hPa 0,0 l/m 0,6 km/h (0 Bft) W 270 8,6 C 23,4 C 0,0 km/h (0 Bft)
25.04.2013 09:35 22,0 C 39 % 1028,6 hPa 0,0 l/m 1,1 km/h (1 Bft) SW 225 7,4 C 23,5 C 1,6 km/h (1 Bft)
25.04.2013 09:40 22,0 C 39 % 1028,6 hPa 0,0 l/m 1,3 km/h (1 Bft) W-SW 247 7,4 C 23,4 C 0,0 km/h (0 Bft)
25.04.2013 09:45 22,2 C 39 % 1028,5 hPa 0,0 l/m 1,4 km/h (1 Bft) W 270 7,6 C 23,5 C 2,6 km/h (1 Bft)
25.04.2013 09:50 22,7 C 39 % 1028,5 hPa 0,0 l/m 1,6 km/h (1 Bft) W 270 8,0 C 23,6 C 2,6 km/h (1 Bft)
25.04.2013 09:55 22,9 C 38 % 1028,5 hPa 0,0 l/m 1,4 km/h (1 Bft) O 90 7,8 C 23,8 C 0,0 km/h (0 Bft)
25.04.2013 10:00 22,3 C 38 % 1028,5 hPa 0,0 l/m 1,4 km/h (1 Bft) N-NW 337 7,3 C 23,9 C 5,5 km/h (1 Bft)
25.04.2013 10:05 21,7 C 37 % 1028,6 hPa 0,0 l/m 1,3 km/h (1 Bft) NO 45 6,4 C 24,1 C 0,0 km/h (0 Bft)
25.04.2013 10:10 21,0 C 37 % 1028,6 hPa 0,0 l/m 2,9 km/h (1 Bft) N 360 5,8 C 23,6 C 8,7 km/h (2 Bft)
25.04.2013 10:15 22,1 C 38 % 1028,6 hPa 0,0 l/m 3,5 km/h (1 Bft) O-SO 112 7,1 C 23,1 C 2,4 km/h (1 Bft)
25.04.2013 10:20 21,9 C 38 % 1028,6 hPa 0,0 l/m 2,7 km/h (1 Bft) NW 315 6,9 C 23,6 C 5,1 km/h (1 Bft)
25.04.2013 10:25 21,8 C 37 % 1028,8 hPa 0,0 l/m 2,4 km/h (1 Bft) N 360 6,5 C 23,7 C 4,0 km/h (1 Bft)
25.04.2013 10:30 22,0 C 38 % 1028,8 hPa 0,0 l/m 2,7 km/h (1 Bft) S 180 7,0 C 23,6 C 0,0 km/h (0 Bft)
25.04.2013 10:35 21,7 C 37 % 1028,8 hPa 0,0 l/m 3,4 km/h (1 Bft) W-NW 292 6,4 C 23,6 C 5,8 km/h (2 Bft)
25.04.2013 10:40 20,7 C 37 % 1028,8 hPa 0,0 l/m 4,0 km/h (1 Bft) N-NW 337 5,5 C 23,0 C 9,7 km/h (2 Bft)
25.04.2013 10:45 21,5 C 37 % 1028,9 hPa 0,0 l/m 4,3 km/h (1 Bft) W-SW 247 6,2 C 23,0 C 6,9 km/h (2 Bft)
25.04.2013 10:50 21,6 C 37 % 1028,9 hPa 0,0 l/m 5,0 km/h (1 Bft) N 360 6,3 C 22,3 C 10,0 km/h (2 Bft)
25.04.2013 10:55 21,8 C 37 % 1028,9 hPa 0,0 l/m 5,1 km/h (1 Bft) W-NW 292 6,5 C 22,5 C 4,5 km/h (1 Bft)
25.04.2013 11:00 22,6 C 36 % 1028,9 hPa 0,0 l/m 3,9 km/h (1 Bft) NW 315 6,8 C 22,8 C 3,7 km/h (1 Bft)
25.04.2013 11:05 22,0 C 35 % 1029,1 hPa 0,0 l/m 3,2 km/h (1 Bft) S-SW 202 5,8 C 23,3 C 0,0 km/h (0 Bft)
25.04.2013 11:10 21,8 C 35 % 1029,1 hPa 0,0 l/m 2,6 km/h (1 Bft) W 270 5,7 C 24,0 C 5,8 km/h (2 Bft)
25.04.2013 11:15 21,6 C 36 % 1029,1 hPa 0,0 l/m 2,9 km/h (1 Bft) S-SO 157 5,9 C 23,7 C 3,1 km/h (1 Bft)
25.04.2013 11:20 21,6 C 37 % 1029,1 hPa 0,0 l/m 4,7 km/h (1 Bft) SW 225 6,3 C 22,7 C 10,3 km/h (2 Bft)
25.04.2013 11:25 21,6 C 36 % 1029,2 hPa 0,0 l/m 5,3 km/h (1 Bft) N 360 5,9 C 21,9 C 5,6 km/h (1 Bft)
25.04.2013 11:30 21,7 C 37 % 1029,2 hPa 0,0 l/m 6,1 km/h (2 Bft) N 360 6,4 C 20,8 C 9,2 km/h (2 Bft)
25.04.2013 11:35 21,6 C 34 % 1029,2 hPa 0,0 l/m 6,4 km/h (2 Bft) N 360 5,1 C 20,4 C 4,8 km/h (1 Bft)
25.04.2013 11:40 22,5 C 35 % 1029,2 hPa 0,0 l/m 5,8 km/h (2 Bft) W 270 6,3 C 20,5 C 10,6 km/h (2 Bft)
25.04.2013 11:45 23,1 C 33 % 1029,1 hPa 0,0 l/m 4,5 km/h (1 Bft) W-NW 292 5,9 C 20,7 C 0,0 km/h (0 Bft)
25.04.2013 11:50 23,3 C 32 % 1029,1 hPa 0,0 l/m 2,1 km/h (1 Bft) NO 45 5,7 C 22,5 C 2,6 km/h (1 Bft)
25.04.2013 11:55 23,0 C 32 % 1029,1 hPa 0,0 l/m 2,3 km/h (1 Bft) N-NW 337 5,4 C 23,3 C 6,0 km/h (2 Bft)
25.04.2013 12:00 22,5 C 34 % 1029,1 hPa 0,0 l/m 3,7 km/h (1 Bft) W-NW 292 5,9 C 23,7 C 3,1 km/h (1 Bft)
25.04.2013 12:05 22,6 C 34 % 1029,2 hPa 0,0 l/m 3,9 km/h (1 Bft) N-NW 337 5,9 C 23,9 C 2,6 km/h (1 Bft)
25.04.2013 12:10 22,6 C 33 % 1029,2 hPa 0,0 l/m 2,7 km/h (1 Bft) W-SW 247 5,5 C 24,3 C 0,0 km/h (0 Bft)
25.04.2013 12:15 22,8 C 35 % 1029,2 hPa 0,0 l/m 2,4 km/h (1 Bft) SW 225 6,5 C 24,8 C 4,0 km/h (1 Bft)
25.04.2013 12:20 22,4 C 33 % 1029,2 hPa 0,0 l/m 3,1 km/h (1 Bft) S 180 5,3 C 24,5 C 0,0 km/h (0 Bft)
25.04.2013 12:25 23,4 C 32 % 1029,1 hPa 0,0 l/m 3,4 km/h (1 Bft) N 360 5,8 C 24,6 C 0,0 km/h (0 Bft)
25.04.2013 12:30 24,0 C 32 % 1029,1 hPa 0,0 l/m 2,9 km/h (1 Bft) W 270 6,3 C 25,0 C 9,7 km/h (2 Bft)
25.04.2013 12:35 22,5 C 33 % 1029,1 hPa 0,0 l/m 4,5 km/h (1 Bft) W 270 5,4 C 24,5 C 8,0 km/h (2 Bft)
25.04.2013 12:40 22,4 C 34 % 1029,1 hPa 0,0 l/m 6,4 km/h (2 Bft) W 270 5,8 C 23,6 C 8,4 km/h (2 Bft)
25.04.2013 12:45 23,3 C 33 % 1028,8 hPa 0,0 l/m 6,0 km/h (2 Bft) W 270 6,1 C 23,5 C 7,9 km/h (2 Bft)
25.04.2013 12:50 22,8 C 34 % 1028,8 hPa 0,0 l/m 5,6 km/h (1 Bft) S 180 6,1 C 23,5 C 12,2 km/h (2 Bft)
25.04.2013 12:55 23,1 C 32 % 1028,8 hPa 0,0 l/m 5,8 km/h (2 Bft) W 270 5,5 C 23,5 C 8,7 km/h (2 Bft)
25.04.2013 13:00 23,1 C 32 % 1028,8 hPa 0,0 l/m 5,3 km/h (1 Bft) SW 225 5,5 C 23,7 C 2,1 km/h (1 Bft)
25.04.2013 13:05 22,4 C 33 % 1028,6 hPa 0,0 l/m 5,5 km/h (1 Bft) N 360 5,3 C 23,9 C 5,6 km/h (1 Bft)
25.04.2013 13:10 22,1 C 35 % 1028,6 hPa 0,0 l/m 4,5 km/h (1 Bft) N-NW 337 5,9 C 24,2 C 7,9 km/h (2 Bft)
25.04.2013 13:15 22,4 C 34 % 1028,6 hPa 0,0 l/m 4,5 km/h (1 Bft) W-NW 292 5,8 C 24,3 C 7,1 km/h (2 Bft)
25.04.2013 13:20 22,7 C 35 % 1028,6 hPa 0,0 l/m 4,5 km/h (1 Bft) S 180 6,4 C 24,4 C 3,9 km/h (1 Bft)
25.04.2013 13:25 22,6 C 33 % 1028,6 hPa 0,0 l/m 3,4 km/h (1 Bft) N-NW 337 5,5 C 25,1 C 4,0 km/h (1 Bft)
25.04.2013 13:30 22,4 C 34 % 1028,6 hPa 0,0 l/m 3,7 km/h (1 Bft) N-NW 337 5,8 C 25,0 C 3,1 km/h (1 Bft)
25.04.2013 13:35 22,0 C 34 % 1028,6 hPa 0,0 l/m 4,7 km/h (1 Bft) NO 45 5,4 C 24,9 C 5,6 km/h (1 Bft)
25.04.2013 13:40 21,9 C 35 % 1028,6 hPa 0,0 l/m 4,8 km/h (1 Bft) W-SW 247 5,7 C 24,0 C 1,6 km/h (1 Bft)
25.04.2013 13:45 23,0 C 33 % 1028,2 hPa 0,0 l/m 4,5 km/h (1 Bft) W 270 5,9 C 24,4 C 3,5 km/h (1 Bft)
25.04.2013 13:50 23,1 C 31 % 1028,2 hPa 0,0 l/m 3,7 km/h (1 Bft) W-NW 292 5,0 C 24,7 C 7,7 km/h (2 Bft)
25.04.2013 13:55 23,3 C 32 % 1028,2 hPa 0,0 l/m 4,3 km/h (1 Bft) S-SO 157 5,7 C 24,7 C 2,4 km/h (1 Bft)
25.04.2013 14:00 22,5 C 34 % 1028,2 hPa 0,0 l/m 5,1 km/h (1 Bft) O-NO 67 5,9 C 24,6 C 6,1 km/h (2 Bft)
25.04.2013 14:05 22,1 C 35 % 1028,3 hPa 0,0 l/m 4,5 km/h (1 Bft) W-NW 292 5,9 C 23,6 C 6,4 km/h (2 Bft)
25.04.2013 14:10 22,9 C 34 % 1028,3 hPa 0,0 l/m 4,7 km/h (1 Bft) NW 315 6,2 C 23,8 C 5,8 km/h (2 Bft)
25.04.2013 14:15 21,4 C 34 % 1028,3 hPa 0,0 l/m 5,3 km/h (1 Bft) N-NO 22 4,9 C 23,7 C 6,4 km/h (2 Bft)
25.04.2013 14:20 22,0 C 34 % 1028,3 hPa 0,0 l/m 5,5 km/h (1 Bft) W-SW 247 5,4 C 23,0 C 12,4 km/h (3 Bft)
25.04.2013 14:25 22,7 C 34 % 1028,1 hPa 0,0 l/m 4,0 km/h (1 Bft) S 180 6,0 C 23,9 C 3,7 km/h (1 Bft)
25.04.2013 14:30 23,4 C 32 % 1028,1 hPa 0,0 l/m 2,9 km/h (1 Bft) W 270 5,8 C 24,9 C 2,9 km/h (1 Bft)
25.04.2013 14:35 23,0 C 32 % 1028,1 hPa 0,0 l/m 4,0 km/h (1 Bft) W-SW 247 5,4 C 25,1 C 2,9 km/h (1 Bft)
25.04.2013 14:40 23,1 C 32 % 1028,1 hPa 0,0 l/m 4,2 km/h (1 Bft) SW 225 5,5 C 24,8 C 3,4 km/h (1 Bft)
25.04.2013 14:45 23,5 C 31 % 1028,0 hPa 0,0 l/m 4,0 km/h (1 Bft) S-SW 202 5,4 C 24,9 C 3,4 km/h (1 Bft)
25.04.2013 14:50 23,7 C 31 % 1028,0 hPa 0,0 l/m 2,7 km/h (1 Bft) W 270 5,6 C 25,7 C 4,5 km/h (1 Bft)
25.04.2013 14:55 22,9 C 32 % 1028,0 hPa 0,0 l/m 4,0 km/h (1 Bft) W 270 5,3 C 25,6 C 7,9 km/h (2 Bft)
25.04.2013 15:00 23,3 C 31 % 1028,0 hPa 0,0 l/m 6,0 km/h (2 Bft) S-SO 157 5,2 C 24,7 C 4,8 km/h (1 Bft)
25.04.2013 15:05 22,8 C 32 % 1027,9 hPa 0,0 l/m 4,8 km/h (1 Bft) W-NW 292 5,2 C 25,1 C 4,5 km/h (1 Bft)
25.04.2013 15:10 22,8 C 33 % 1027,9 hPa 0,0 l/m 4,8 km/h (1 Bft) W-NW 292 5,7 C 25,1 C 9,8 km/h (2 Bft)
25.04.2013 15:15 22,7 C 33 % 1027,9 hPa 0,0 l/m 5,0 km/h (1 Bft) W-NW 292 5,6 C 25,1 C 3,9 km/h (1 Bft)
25.04.2013 15:20 22,7 C 33 % 1027,9 hPa 0,0 l/m 4,0 km/h (1 Bft) NW 315 5,6 C 25,4 C 7,9 km/h (2 Bft)
25.04.2013 15:25 22,7 C 32 % 1027,6 hPa 0,0 l/m 3,9 km/h (1 Bft) NO 45 5,2 C 25,5 C 6,4 km/h (2 Bft)
25.04.2013 15:30 23,0 C 31 % 1027,6 hPa 0,0 l/m 4,0 km/h (1 Bft) O-NO 67 5,0 C 26,0 C 4,5 km/h (1 Bft)
25.04.2013 15:35 23,1 C 31 % 1027,6 hPa 0,0 l/m 3,7 km/h (1 Bft) W-NW 292 5,0 C 26,1 C 6,9 km/h (2 Bft)
25.04.2013 15:40 22,5 C 32 % 1027,6 hPa 0,0 l/m 4,3 km/h (1 Bft) N-NO 22 5,0 C 26,1 C 3,7 km/h (1 Bft)
25.04.2013 15:45 23,2 C 31 % 1027,2 hPa 0,0 l/m 4,5 km/h (1 Bft) W 270 5,1 C 26,3 C 8,7 km/h (2 Bft)
25.04.2013 15:50 22,8 C 33 % 1027,2 hPa 0,0 l/m 4,8 km/h (1 Bft) N-NW 337 5,7 C 26,0 C 5,0 km/h (1 Bft)
25.04.2013 15:55 22,7 C 33 % 1027,2 hPa 0,0 l/m 4,7 km/h (1 Bft) NW 315 5,6 C 26,0 C 6,4 km/h (2 Bft)
25.04.2013 16:00 23,4 C 31 % 1027,2 hPa 0,0 l/m 4,0 km/h (1 Bft) W-SW 247 5,3 C 25,9 C 3,1 km/h (1 Bft)
25.04.2013 16:05 23,0 C 31 % 1027,0 hPa 0,0 l/m 3,9 km/h (1 Bft) O 90 5,0 C 26,4 C 5,1 km/h (1 Bft)
25.04.2013 16:10 23,0 C 31 % 1027,0 hPa 0,0 l/m 4,5 km/h (1 Bft) W 270 5,0 C 26,1 C 8,5 km/h (2 Bft)
25.04.2013 16:15 22,5 C 33 % 1027,0 hPa 0,0 l/m 6,0 km/h (2 Bft) N-NW 337 5,4 C 25,6 C 7,9 km/h (2 Bft)
25.04.2013 16:20 22,5 C 33 % 1027,0 hPa 0,0 l/m 5,6 km/h (1 Bft) W-NW 292 5,4 C 25,4 C 4,0 km/h (1 Bft)
25.04.2013 16:25 22,6 C 33 % 1026,8 hPa 0,0 l/m 4,0 km/h (1 Bft) NW 315 5,5 C 25,8 C 4,7 km/h (1 Bft)
25.04.2013 16:30 22,6 C 33 % 1026,8 hPa 0,0 l/m 1,9 km/h (1 Bft) N 360 5,5 C 26,6 C 2,1 km/h (1 Bft)
25.04.2013 16:35 22,6 C 34 % 1026,8 hPa 0,0 l/m 1,1 km/h (1 Bft) W-NW 292 5,9 C 27,6 C 1,6 km/h (1 Bft)
25.04.2013 16:40 22,3 C 34 % 1026,8 hPa 0,0 l/m 1,9 km/h (1 Bft) W-SW 247 5,7 C 27,7 C 2,7 km/h (1 Bft)
25.04.2013 16:45 22,3 C 34 % 1026,6 hPa 0,0 l/m 3,7 km/h (1 Bft) W-SW 247 5,7 C 27,3 C 4,2 km/h (1 Bft)
25.04.2013 16:50 21,8 C 34 % 1026,6 hPa 0,0 l/m 4,5 km/h (1 Bft) NO 45 5,2 C 26,5 C 2,7 km/h (1 Bft)
25.04.2013 16:55 21,5 C 34 % 1026,6 hPa 0,0 l/m 3,5 km/h (1 Bft) N-NO 22 5,0 C 26,8 C 5,3 km/h (1 Bft)
25.04.2013 17:00 21,7 C 35 % 1026,6 hPa 0,0 l/m 3,4 km/h (1 Bft) W-SW 247 5,6 C 26,6 C 3,4 km/h (1 Bft)
25.04.2013 17:05 21,7 C 35 % 1026,4 hPa 0,0 l/m 4,2 km/h (1 Bft) W 270 5,6 C 26,5 C 3,2 km/h (1 Bft)
25.04.2013 17:10 21,4 C 35 % 1026,4 hPa 0,0 l/m 2,6 km/h (1 Bft) O-NO 67 5,3 C 26,8 C 2,4 km/h (1 Bft)
25.04.2013 17:15 21,1 C 35 % 1026,4 hPa 0,0 l/m 3,2 km/h (1 Bft) NW 315 5,0 C 27,2 C 8,9 km/h (2 Bft)
25.04.2013 17:20 20,8 C 35 % 1026,4 hPa 0,0 l/m 5,0 km/h (1 Bft) W-NW 292 4,8 C 26,2 C 4,8 km/h (1 Bft)
25.04.2013 17:25 21,0 C 36 % 1026,1 hPa 0,0 l/m 5,1 km/h (1 Bft) S 180 5,4 C 26,0 C 1,8 km/h (1 Bft)
25.04.2013 17:30 20,9 C 36 % 1026,1 hPa 0,0 l/m 4,0 km/h (1 Bft) W-SW 247 5,3 C 26,0 C 6,1 km/h (2 Bft)
25.04.2013 17:35 20,8 C 36 % 1026,1 hPa 0,0 l/m 3,7 km/h (1 Bft) W 270 5,2 C 26,1 C 3,1 km/h (1 Bft)
25.04.2013 17:40 20,8 C 36 % 1026,1 hPa 0,0 l/m 2,9 km/h (1 Bft) W-SW 247 5,2 C 26,5 C 2,1 km/h (1 Bft)
25.04.2013 17:45 20,9 C 38 % 1025,8 hPa 0,0 l/m 3,2 km/h (1 Bft) W-SW 247 6,0 C 26,6 C 5,5 km/h (1 Bft)
25.04.2013 17:50 20,5 C 36 % 1025,8 hPa 0,0 l/m 3,9 km/h (1 Bft) W-NW 292 4,9 C 26,3 C 3,9 km/h (1 Bft)
25.04.2013 17:55 20,7 C 37 % 1025,8 hPa 0,0 l/m 4,0 km/h (1 Bft) NW 315 5,5 C 26,3 C 3,4 km/h (1 Bft)
25.04.2013 18:00 20,5 C 37 % 1025,8 hPa 0,0 l/m 3,5 km/h (1 Bft) W 270 5,3 C 26,2 C 3,2 km/h (1 Bft)
25.04.2013 18:05 20,6 C 38 % 1025,5 hPa 0,0 l/m 3,2 km/h (1 Bft) N-NW 337 5,8 C 26,0 C 3,1 km/h (1 Bft)
25.04.2013 18:10 20,3 C 36 % 1025,5 hPa 0,0 l/m 3,4 km/h (1 Bft) N 360 4,7 C 26,1 C 6,4 km/h (2 Bft)
25.04.2013 18:15 20,2 C 37 % 1025,5 hPa 0,0 l/m 3,2 km/h (1 Bft) W-NW 292 5,0 C 25,9 C 0,0 km/h (0 Bft)
25.04.2013 18:20 20,2 C 37 % 1025,5 hPa 0,0 l/m 2,6 km/h (1 Bft) W-SW 247 5,0 C 26,0 C 2,1 km/h (1 Bft)
25.04.2013 18:25 20,3 C 38 % 1025,2 hPa 0,0 l/m 3,1 km/h (1 Bft) W 270 5,5 C 25,9 C 6,8 km/h (2 Bft)
25.04.2013 18:30 20,0 C 38 % 1025,2 hPa 0,0 l/m 4,5 km/h (1 Bft) W-NW 292 5,2 C 25,5 C 2,7 km/h (1 Bft)
25.04.2013 18:35 19,8 C 39 % 1025,2 hPa 0,0 l/m 3,5 km/h (1 Bft) SO 135 5,4 C 25,7 C 1,9 km/h (1 Bft)
25.04.2013 18:40 19,8 C 39 % 1025,2 hPa 0,0 l/m 3,2 km/h (1 Bft) W-NW 292 5,4 C 25,3 C 6,8 km/h (2 Bft)
25.04.2013 18:45 19,8 C 39 % 1024,9 hPa 0,0 l/m 4,0 km/h (1 Bft) NW 315 5,4 C 25,1 C 3,7 km/h (1 Bft)
25.04.2013 18:50 19,6 C 39 % 1024,9 hPa 0,0 l/m 4,0 km/h (1 Bft) W-NW 292 5,3 C 25,0 C 5,8 km/h (2 Bft)
25.04.2013 18:55 19,4 C 39 % 1024,9 hPa 0,0 l/m 3,9 km/h (1 Bft) N 360 5,1 C 24,7 C 4,7 km/h (1 Bft)
25.04.2013 19:00 19,2 C 40 % 1024,9 hPa 0,0 l/m 3,5 km/h (1 Bft) N-NW 337 5,3 C 24,5 C 2,3 km/h (1 Bft)
25.04.2013 19:05 18,8 C 42 % 1024,9 hPa 0,0 l/m 2,9 km/h (1 Bft) NO 45 5,6 C 24,6 C 0,0 km/h (0 Bft)
25.04.2013 19:10 18,6 C 43 % 1024,9 hPa 0,0 l/m 1,3 km/h (1 Bft) N 360 5,8 C 24,8 C 3,4 km/h (1 Bft)
25.04.2013 19:15 18,5 C 43 % 1024,9 hPa 0,0 l/m 1,0 km/h (0 Bft) N-NW 337 5,7 C 24,9 C 0,0 km/h (0 Bft)
25.04.2013 19:20 18,5 C 44 % 1024,9 hPa 0,0 l/m 2,3 km/h (1 Bft) W-NW 292 6,0 C 24,2 C 4,3 km/h (1 Bft)
25.04.2013 19:25 18,4 C 44 % 1024,4 hPa 0,0 l/m 2,4 km/h (1 Bft) N 360 5,9 C 23,7 C 0,0 km/h (0 Bft)
25.04.2013 19:30 18,1 C 45 % 1024,4 hPa 0,0 l/m 1,1 km/h (1 Bft) NW 315 6,0 C 23,7 C 2,1 km/h (1 Bft)
25.04.2013 19:35 17,9 C 46 % 1024,4 hPa 0,0 l/m 1,0 km/h (0 Bft) NO 45 6,1 C 23,5 C 2,9 km/h (1 Bft)
25.04.2013 19:40 17,7 C 46 % 1024,4 hPa 0,0 l/m 2,6 km/h (1 Bft) O-NO 67 5,9 C 22,5 C 3,9 km/h (1 Bft)
25.04.2013 19:45 17,6 C 46 % 1024,4 hPa 0,0 l/m 2,7 km/h (1 Bft) O-NO 67 5,8 C 21,9 C 3,2 km/h (1 Bft)
25.04.2013 19:50 17,2 C 48 % 1024,4 hPa 0,0 l/m 2,6 km/h (1 Bft) NO 45 6,1 C 21,1 C 2,7 km/h (1 Bft)
25.04.2013 19:55 17,1 C 48 % 1024,4 hPa 0,0 l/m 2,9 km/h (1 Bft) NO 45 6,0 C 20,5 C 3,4 km/h (1 Bft)
25.04.2013 20:00 16,9 C 49 % 1024,4 hPa 0,0 l/m 3,9 km/h (1 Bft) NO 45 6,1 C 19,6 C 4,7 km/h (1 Bft)
25.04.2013 20:05 16,7 C 49 % 1024,2 hPa 0,0 l/m 4,2 km/h (1 Bft) NO 45 5,9 C 19,0 C 4,5 km/h (1 Bft)
25.04.2013 20:10 16,3 C 50 % 1024,2 hPa 0,0 l/m 4,8 km/h (1 Bft) NO 45 5,9 C 18,1 C 4,8 km/h (1 Bft)
25.04.2013 20:15 16,0 C 50 % 1024,2 hPa 0,0 l/m 4,8 km/h (1 Bft) O-NO 67 5,6 C 17,1 C 4,7 km/h (1 Bft)
25.04.2013 20:20 15,5 C 52 % 1024,2 hPa 0,0 l/m 3,9 km/h (1 Bft) O-NO 67 5,7 C 16,0 C 3,2 km/h (1 Bft)
25.04.2013 20:25 14,8 C 55 % 1023,8 hPa 0,0 l/m 3,2 km/h (1 Bft) O 90 5,8 C 15,2 C 3,4 km/h (1 Bft)
25.04.2013 20:30 14,0 C 57 % 1023,8 hPa 0,0 l/m 2,9 km/h (1 Bft) O 90 5,6 C 14,2 C 3,7 km/h (1 Bft)
25.04.2013 20:35 14,1 C 57 % 1023,8 hPa 0,0 l/m 2,9 km/h (1 Bft) O 90 5,7 C 13,7 C 3,1 km/h (1 Bft)
25.04.2013 20:40 13,5 C 59 % 1023,8 hPa 0,0 l/m 3,2 km/h (1 Bft) O 90 5,6 C 12,9 C 3,7 km/h (1 Bft)
25.04.2013 20:45 13,3 C 59 % 1023,4 hPa 0,0 l/m 3,4 km/h (1 Bft) NO 45 5,5 C 12,6 C 3,7 km/h (1 Bft)
25.04.2013 20:50 12,7 C 63 % 1023,4 hPa 0,0 l/m 2,9 km/h (1 Bft) O 90 5,8 C 12,3 C 4,5 km/h (1 Bft)
25.04.2013 20:55 13,1 C 62 % 1023,4 hPa 0,0 l/m 2,7 km/h (1 Bft) O 90 6,0 C 12,1 C 3,9 km/h (1 Bft)
25.04.2013 21:00 13,0 C 61 % 1023,4 hPa 0,0 l/m 3,1 km/h (1 Bft) O-SO 112 5,7 C 12,2 C 2,7 km/h (1 Bft)
25.04.2013 21:05 12,9 C 63 % 1023,5 hPa 0,0 l/m 2,9 km/h (1 Bft) O 90 6,0 C 12,1 C 3,7 km/h (1 Bft)
25.04.2013 21:10 12,8 C 63 % 1023,5 hPa 0,0 l/m 2,7 km/h (1 Bft) O 90 5,9 C 12,1 C 3,5 km/h (1 Bft)
25.04.2013 21:15 12,5 C 63 % 1023,5 hPa 0,0 l/m 2,3 km/h (1 Bft) N 360 5,7 C 12,0 C 0,0 km/h (0 Bft)
25.04.2013 21:20 12,1 C 63 % 1023,5 hPa 0,0 l/m 1,1 km/h (1 Bft) N-NW 337 5,3 C 11,8 C 0,0 km/h (0 Bft)
25.04.2013 21:25 12,1 C 64 % 1023,4 hPa 0,0 l/m 0,8 km/h (0 Bft) O-SO 112 5,5 C 11,7 C 2,9 km/h (1 Bft)
25.04.2013 21:30 12,0 C 64 % 1023,4 hPa 0,0 l/m 0,8 km/h (0 Bft) O-SO 112 5,4 C 11,5 C 1,8 km/h (1 Bft)
25.04.2013 21:35 11,9 C 65 % 1023,4 hPa 0,0 l/m 1,0 km/h (0 Bft) O-NO 67 5,5 C 11,5 C 3,5 km/h (1 Bft)
25.04.2013 21:40 11,8 C 65 % 1023,4 hPa 0,0 l/m 1,3 km/h (1 Bft) O 90 5,4 C 11,3 C 0,0 km/h (0 Bft)
25.04.2013 21:45 11,6 C 65 % 1023,4 hPa 0,0 l/m 0,8 km/h (0 Bft) O-NO 67 5,2 C 11,0 C 0,0 km/h (0 Bft)
25.04.2013 21:50 10,9 C 66 % 1023,4 hPa 0,0 l/m 0,2 km/h (0 Bft) O 90 4,8 C 10,5 C 0,0 km/h (0 Bft)
25.04.2013 21:55 10,7 C 67 % 1023,4 hPa 0,0 l/m 0,0 km/h (0 Bft) NO 45 4,8 C 10,3 C 0,0 km/h (0 Bft)
25.04.2013 22:00 10,5 C 69 % 1023,4 hPa 0,0 l/m 0,0 km/h (0 Bft) NO 45 5,1 C 10,1 C 0,0 km/h (0 Bft)
25.04.2013 22:05 10,3 C 69 % 1023,3 hPa 0,0 l/m 0,0 km/h (0 Bft) O 90 4,9 C 9,8 C 0,0 km/h (0 Bft)
25.04.2013 22:10 10,1 C 69 % 1023,3 hPa 0,0 l/m 0,0 km/h (0 Bft) O 90 4,7 C 9,5 C 0,0 km/h (0 Bft)
25.04.2013 22:15 10,1 C 69 % 1023,3 hPa 0,0 l/m 0,0 km/h (0 Bft) O-NO 67 4,7 C 9,4 C 0,0 km/h (0 Bft)
25.04.2013 22:20 9,8 C 70 % 1023,3 hPa 0,0 l/m 0,0 km/h (0 Bft) NW 315 4,6 C 9,3 C 0,0 km/h (0 Bft)
25.04.2013 22:25 9,8 C 71 % 1023,1 hPa 0,0 l/m 0,0 km/h (0 Bft) NO 45 4,8 C 9,2 C 0,0 km/h (0 Bft)
25.04.2013 22:30 9,4 C 71 % 1023,1 hPa 0,0 l/m 0,0 km/h (0 Bft) W 270 4,4 C 9,1 C 0,0 km/h (0 Bft)
25.04.2013 22:35 9,5 C 72 % 1023,1 hPa 0,0 l/m 0,0 km/h (0 Bft) SO 135 4,7 C 9,0 C 0,0 km/h (0 Bft)
25.04.2013 22:40 9,4 C 73 % 1023,1 hPa 0,0 l/m 0,2 km/h (0 Bft) S-SO 157 4,8 C 8,9 C 0,0 km/h (0 Bft)
25.04.2013 22:45 9,2 C 73 % 1023,1 hPa 0,0 l/m 0,6 km/h (0 Bft) S 180 4,6 C 8,9 C 3,2 km/h (1 Bft)
25.04.2013 22:50 9,3 C 78 % 1023,1 hPa 0,0 l/m 0,8 km/h (0 Bft) N-NO 22 5,7 C 8,9 C 0,0 km/h (0 Bft)
25.04.2013 22:55 8,9 C 77 % 1023,1 hPa 0,0 l/m 0,3 km/h (0 Bft) W-NW 292 5,1 C 8,6 C 0,0 km/h (0 Bft)
25.04.2013 23:00 8,7 C 76 % 1023,1 hPa 0,0 l/m 0,3 km/h (0 Bft) O 90 4,7 C 8,5 C 2,9 km/h (1 Bft)
25.04.2013 23:05 9,0 C 76 % 1023,1 hPa 0,0 l/m 0,6 km/h (0 Bft) NO 45 5,0 C 8,9 C 0,0 km/h (0 Bft)
25.04.2013 23:10 9,0 C 75 % 1023,1 hPa 0,0 l/m 0,5 km/h (0 Bft) S-SW 202 4,8 C 9,0 C 0,0 km/h (0 Bft)
25.04.2013 23:15 9,0 C 75 % 1023,1 hPa 0,0 l/m 0,3 km/h (0 Bft) W 270 4,8 C 9,0 C 0,0 km/h (0 Bft)
25.04.2013 23:20 9,3 C 76 % 1023,1 hPa 0,0 l/m 0,3 km/h (0 Bft) O 90 5,3 C 9,2 C 0,0 km/h (0 Bft)
25.04.2013 23:25 9,3 C 75 % 1022,8 hPa 0,0 l/m 0,0 km/h (0 Bft) W-NW 292 5,1 C 9,1 C 1,6 km/h (1 Bft)
25.04.2013 23:30 8,6 C 75 % 1022,8 hPa 0,0 l/m 0,2 km/h (0 Bft) S-SO 157 4,4 C 8,9 C 0,0 km/h (0 Bft)
25.04.2013 23:35 8,6 C 76 % 1022,8 hPa 0,0 l/m 0,2 km/h (0 Bft) N-NO 22 4,6 C 8,5 C 0,0 km/h (0 Bft)
25.04.2013 23:40 8,2 C 76 % 1022,8 hPa 0,0 l/m 0,0 km/h (0 Bft) O-NO 67 4,2 C 8,1 C 0,0 km/h (0 Bft)
25.04.2013 23:45 8,1 C 76 % 1022,6 hPa 0,0 l/m 0,0 km/h (0 Bft) NO 45 4,1 C 8,0 C 0,0 km/h (0 Bft)
25.04.2013 23:50 8,1 C 76 % 1022,6 hPa 0,0 l/m 0,0 km/h (0 Bft) N-NO 22 4,1 C 7,8 C 0,0 km/h (0 Bft)
25.04.2013 23:55 8,1 C 76 % 1022,6 hPa 0,0 l/m 0,0 km/h (0 Bft) O 90 4,1 C 7,9 C 0,0 km/h (0 Bft)
_ Min-Zeit 05:25 16:10 23:55 - 23:55 - - 05:25 06:05 23:55
Minimum _ 5,2 C 31 % 1022,6 hPa - 0,0 km/h (0 Bft) - - 2,9 C 5,4 C 0,0 km/h (0 Bft)
_ Max-Zeit 12:30 06:25 12:20 23:55 12:40 - - 09:10 16:40 14:20
Maximum _ 24,0 C 88 % 1029,2 hPa 0,0 l/m 6,4 km/h
W (2 Bft)
- - 10,3 C 27,7 C 12,4 km/h
W-SW (3 Bft)
Durchschnitt _ 15,1 C 58 % 1026,8 hPa #0,0 l/m 1,9 km/h (1 Bft) W-NW - 5,5 C 16,5 C 2,3 km/h (1 Bft)